Regional Weather Roundup
Issued by NWS

Home | Current Version | Previous Version | Graphics & Text | Print | Product List | Glossary On
Versions: 1 2 3 4 5 6 7 8 9 10 11 12 13 14 15 16 17 18 19 20 21 22 23 24 25 26 27 28 29 30 31 32 33 34 35 36 37 38 39 40 41 42 43 44 45 46 47 48 49 50
000
ASUS43 KMKX 261321
RWRWI

WISCONSIN REGIONAL WEATHER ROUNDUP
NATIONAL WEATHER SERVICE MILWAUKEE/SULLIVAN WI
800 AM CDT SAT JUL 26 2014

NOTE: "FAIR" INDICATES FEW OR NO CLOUDS BELOW 12,000 FEET WITH NO
SIGNIFICANT WEATHER AND/OR OBSTRUCTIONS TO VISIBILITY.

WIZ001-002-006>008-014>016-023>028-261400-
NORTHWEST WISCONSIN

CITY           SKY/WX    TMP DP  RH WIND       PRES   REMARKS
SUPERIOR ARPT  SUNNY     70  63  78 W9        29.79R
ASHLAND        MOSUNNY   73  67  81 W8        29.78R
HAYWARD        CLOUDY    70  67  90 VRB5      29.81R
SIREN          SUNNY     71  65  82 NW7       29.83R
RICE LAKE      PTSUNNY   72  68  89 W5        29.84R
LADYSMITH      CLOUDY    71  69  93 W7        29.84S FOG
EAU CLAIRE     CLOUDY    71  69  93 SW7       29.82S
MENOMONIE      CLOUDY    73  70  90 SW6       29.84R
NEW RICHMOND   PTSUNNY   72  70  95 W7        29.84R FOG
OSCEOLA        PTSUNNY   70  70 100 CALM      29.86R
$$

WIZ003>005-009-010-017-018-261400-
NORTH CENTRAL WISCONSIN

CITY           SKY/WX    TMP DP  RH WIND       PRES   REMARKS
WOODRUFF       CLOUDY    67  65  92 W5        29.81S FOG
RHINELANDER    FOG       65  65 100 W7        29.82S VSB 1/2
EAGLE RIVER    FOG       65  65 100 W8        29.81R VSB 1
LAND O LAKES   CLOUDY    66  66  98 W5        29.82R FOG
PHILLIPS       CLOUDY    67  67  99 SW7       29.81S FOG
TOMAHAWK       FOG       65  64  97 CALM      29.82F VSB 1
MEDFORD        FOG       65  65  99 SW5       29.84R VSB 1/4
MERRILL        CLOUDY    66  66 100 W5        29.83R FOG
$$

WIZ029-030-035-036-043>047-261400-
CENTRAL WISCONSIN

CITY           SKY/WX    TMP DP  RH WIND       PRES   REMARKS
WAUSAU         CLOUDY    67  65  93 W7        29.81F FOG
MOSINEE        CLOUDY    64  64 100 SW8       29.84S FOG
MARSHFIELD     CLOUDY    67  66  97 SW7       29.83S FOG
STEVENS POINT  CLOUDY    65  62  90 SW6       29.84S
WAUPACA        CLOUDY    70  65  84 SW5       29.83F
WAUTOMA        CLOUDY    67  64  90 SW3       29.84S
WISC RAPIDS    CLOUDY    69  64  84 W7        29.85R
CAMP DOUGLAS   CLOUDY    68  66  94 W6        29.85R
$$

WIZ011>013-019>022-031-037>040-048>050-261400-
NORTHEAST WISCONSIN

CITY           SKY/WX    TMP DP  RH WIND       PRES   REMARKS
ANTIGO         CLOUDY    65  64  97 W8        29.83S FOG
STURGEON BAY   CLOUDY    66  63  88 SW5       29.82R
GREEN BAY      CLOUDY    68  63  84 SW8       29.82S
MANITOWOC      MOSUNNY   69  63  81 VRB7      29.84S
APPLETON       CLOUDY    66  63  88 SW10      29.85R
CLINTONVILLE   CLOUDY    68  63  83 SW9       29.81F
OSHKOSH        SUNNY     69  63  81 SW5       29.84R
$$

WIZ032>034-041-042-053>061-261400-
SOUTHWEST WISCONSIN

CITY           SKY/WX    TMP DP  RH WIND       PRES   REMARKS
LA CROSSE      CLOUDY    70  65  84 S7        29.84F
SPARTA         CLOUDY    67  64  89 CALM      29.85S
VIROQUA        CLOUDY    66  66 100 W3        29.87R
BOSCOBEL       CLOUDY    69  63  81 CALM      29.86R
PRAIRIE DU CHI CLOUDY    68  63  83 CALM      29.85R
PLATTEVILLE    CLOUDY    67  63  86 CALM      29.87R
$$

WIZ056-057-062-063-064-067-068-261400-
SOUTH CENTRAL WISCONSIN

CITY           SKY/WX    TMP DP  RH WIND       PRES   REMARKS
BARABOO/DELLS  CLOUDY    67  60  77 SW6       29.85S
LONE ROCK      CLOUDY    70  64  81 W3        29.86R
WATERTOWN      CLOUDY    66  62  87 CALM      29.85S
MADISON        PTSUNNY   71  62  73 SW5       29.85S
MIDDLETON      CLOUDY    69  61  76 CALM      29.86S
MONROE         CLOUDY    68  61  77 S10       29.85S
JANESVILLE     NOT AVBL
$$

WIZ051-052-058>065-066-070>072-261400-
SOUTHEAST WISCONSIN

CITY           SKY/WX    TMP DP  RH WIND       PRES   REMARKS
MILWAUKEE      CLOUDY    67  60  78 S5        29.86R
WAUKESHA       PTSUNNY   63  59  88 SW5       29.86S
MILWAUKEE/TIMM CLOUDY    66  59  77 CALM      29.86R
RACINE         CLOUDY    67  60  78 CALM      29.87F
BURLINGTON     CLOUDY    65  61  86 CALM      29.86S
KENOSHA        CLOUDY    67  61  81 SE3       29.85F
FOND DU LAC    MOSUNNY   67  61  81 W3        29.85S
SHEBOYGAN      MOSUNNY   67  62  84 SW3       29.85S
WEST BEND      CLOUDY    64  59  82 CALM      29.85S
JUNEAU         CLOUDY    64  60  88 CALM      29.87S
$$

LSZ147-162-261400-
LAKE SUPERIOR

STATION/POSITION TIME  TEMP    WIND        PRES    WAVE
                       AIR SEA DIR/SP/G            HT/PER
                 (UTC) (F)     (DEG/KT/KT) (MB)    (FT/S)
W MID LAKE BUOY  1250   56 47  230/ 10/ 12 1006.1R   0
PORT WING        1200   70     230/  7/  8 1007.8R
SAXON HARBOR     1200          200/  5/ 11 1007.5S
$$

LMZ867-665-643>646-261400-
LAKE MICHIGAN

STATION/POSITION TIME  TEMP    WIND        PRES    WAVE
                       AIR SEA DIR/SP/G            HT/PER
                 (UTC) (F)     (DEG/KT/KT) (MB)    (FT/S)
N MID LAKE BUOY  1250   60 55  210/ 14/ 16 1008.2F   2/ 5
NORTHPORT PIER   1200   62     150/  3/  5 1008.8S
KEWAUNEE LAKESHO 1300   53     170/  5/  8 1010.5F
SHEBOYGAN LAKESH 1300   69     230/  9/ 10 1010.7S
PORT WASHINGTON  1200   63     190/  4/  6 1011.5
ATWATER BUOY     1300   62     160/  6     1011.9R
MILWAUKEE LAKESH 1300   61     190/  1/  2   N/A
S MID LAKE BUOY  1250   63 61  150/  8/  8 1011.2F   1
KENOSHA   LAKESH 1300   64     150/  5/  5 1010.5F
$$

TC  - TEMPERATURE IN CELSIUS
VSB - VISIBILITY IN STATUTE MILES
WCI - WIND CHILL INDEX
HX  - HEAT INDEX



USA.gov is the U.S. government's official web portal to all federal, state and local government web resources and services.